Regional Weather Roundup
Issued by NWS

Home | Current Version | Previous Version | Graphics & Text | Print | Product List | Glossary On
Versions: 1 2 3 4 5 6 7 8 9 10 11 12 13 14 15 16 17 18 19 20 21 22 23 24 25 26 27 28 29 30 31 32 33 34 35 36 37 38 39 40 41 42 43 44 45 46 47 48 49 50
000
ASUS43 KDMX 250906
RWRIA

WEATHER ROUNDUP FOR IOWA
NATIONAL WEATHER SERVICE DES MOINES IA
300 AM CST SUN FEB 25 2018

NOTE: "FAIR" INDICATES FEW OR NO CLOUDS BELOW 12,000 FEET WITH NO
SIGNIFICANT WEATHER AND/OR OBSTRUCTIONS TO VISIBILITY.

* - THESE STATIONS ARE NOT NWS STATIONS...THUS NOT UNDER NWS
QUALITY CONTROL.  THEY ALSO DO NOT REPORT WEATHER SUCH
AS PRECIPITATION OR FOG.

IAZ001>003-012>014-020>022-031>034-043>046-251000-
   NORTHWEST IOWA

CITY           SKY/WX    TMP DP  RH WIND       PRES   REMARKS
CARROLL *      CLEAR     21  16  79 W18G25    29.77S WCI   6
CHEROKEE *     CLEAR     13  11  90 SW7       29.75S WCI   3
DENISON *      CLEAR     19  14  79 SW12      29.82S WCI   7
LE MARS *      CLEAR     18  10  73 SW10      29.77F WCI   6
ORANGE CITY *  CLEAR     16  12  86 W15       29.73S WCI   1
SHELDON *      CLEAR      9   7  92 SW13      29.71R WCI  -7
SIOUX CITY     CLEAR     17   9  70 W3        29.80S
SPENCER        CLEAR     13   8  81 W18       29.70S WCI  -4
STORM LAKE *   CLEAR     14  10  85 W15       29.74S WCI  -1
$$

IAZ055>058-069>071-079>083-090>094-251000-
   SOUTHWEST IOWA

CITY           SKY/WX    TMP DP  RH WIND       PRES   REMARKS
ATLANTIC *     CLEAR     23  19  86 W8        29.83F WCI  14
AUDUBON *      CLEAR     21  18  86 W7        29.80F WCI  13
CLARINDA *     CLEAR     23  23 100 SW7       29.92S WCI  15
COUNCIL BLFS * CLEAR     25  19  80 W13       29.85S WCI  13
CRESTON *      CLEAR     25  19  80 W12       29.85F WCI  14
LAMONI         CLEAR     28  20  71 W16       29.86R WCI  16
RED OAK *      CLEAR     23  19  86 SW8       29.88S WCI  14
SHENANDOAH *   CLEAR     25  21  86 SW7       29.90S WCI  17
$$

IAZ047>049-059>061-072>074-084-251000-
   CENTRAL IOWA

CITY           SKY/WX    TMP DP  RH WIND       PRES   REMARKS
AMES           CLEAR     23  18  81 W22G28    29.78R WCI   8
ANKENY *       PTCLDY    28  25  86 W15       29.80S WCI  17
BOONE *        CLEAR     21  19  93 W16G23    29.76R WCI   7
CHARITON *     CLEAR     28  23  80 W18G25    29.83R WCI  16
DES MOINES     PTCLDY    28  23  81 W18       29.81R WCI  15
GRINNELL*      CLOUDY    30  25  81 W26G33    29.77R WCI  15
KNOXVILLE *    CLOUDY    30  25  80 W22G29    29.80R WCI  17
MARSHALLTOWN   CLOUDY    26  22  84 W28G39    29.75R WCI  10
NEWTON *       MIX PCPN  30  25  80 W23       29.78R WCI  17
PELLA *        CLOUDY    31  26  80 W13G31    29.81R WCI  22
PERRY *        FAIR      24  21  89 W15       29.80S WCI  11
$$

IAZ004>006-015-016-023>025-035-036-251000-
   NORTH CENTRAL IOWA

CITY           SKY/WX    TMP DP  RH WIND       PRES   REMARKS
ALGONA *       CLOUDY    18 N/A N/A W23       29.71R WCI   0
CLARION *      PTCLDY    16  16 100 W21       29.73R WCI  -2
ESTHERVILLE    PTCLDY    15  13  91 W26G35    29.66S FOG     WCI  -4
FORT DODGE *   CLEAR     15  11  83 W14G22    29.76R WCI   0
MASON CITY     CLOUDY    17  15  92 W26G38    29.68S FOG     WCI  -2
FOREST CITY *  CLOUDY    19  18  93 W10       29.68R WCI   8
WEBSTER CITY * CLEAR     18  12  79 W26       29.73R HAZE    WCI  -1
IOWA FALLS *   FAIR      20  17  86 W24       29.74R WCI   3
$$

IAZ007>011-017>019-026>030-037>042-050>054-066-251000-
   NORTHEAST IOWA

CITY           SKY/WX    TMP DP  RH WIND       PRES   REMARKS
CEDAR RAPIDS   CLOUDY    32  27  81 W28G36    29.71R WCI  18
CHARLES CITY * FAIR      19  19 100 W32G41    29.67R WCI   0
CLINTON *      CLOUDY    32  28  85 W23G30    29.71R WCI  19
DECORAH *      CLOUDY    23  21  93 W10G21    29.61R WCI  12
DUBUQUE        CLOUDY    30 N/A N/A W30G38    29.66R WCI  15
MONTICELLO *   CLOUDY    32  25  74 W26G37    29.69R WCI  18
OELWEIN *      CLOUDY    27  27 100 W23G33    29.68R WCI  12
WATERLOO       CLOUDY    25  21  85 W17G26    29.70R WCI  12
$$

IAZ064-065-067-068-078-251000-
   EAST CENTRAL IOWA

CITY           SKY/WX    TMP DP  RH WIND       PRES   REMARKS
DAVENPORT      CLOUDY    34  26  72 W21G35    29.75R WCI  22
IOWA CITY      CLOUDY    34  27  75 W17G29    29.77R WCI  23
MT. PLEASANT * CLOUDY    32  30  93 W20       29.80R WCI  20
MUSCATINE *    CLOUDY    34  28  80 W20G25    29.78R WCI  22
QUAD CITIES    CLOUDY    34  28  79 W16G26    29.74R WCI  24
$$

IAZ062-063-075>077-085>089-095>099-251000-
   SOUTHEAST IOWA

CITY           SKY/WX    TMP DP  RH WIND       PRES   REMARKS
BURLINGTON     CLOUDY    33  28  81 W18G26    29.80R WCI  22
FAIRFIELD *    CLOUDY    32  27  80 W21G28    29.79R WCI  20
FORT MADISON * CLOUDY    34  30  86 W14G20    29.83R WCI  24
KEOKUK *       CLOUDY    34  30  86 SW20G25   29.83R WCI  22
OSKALOOSA *    MOCLDY    31  26  83 W25G32    29.80R WCI  17
OTTUMWA        CLOUDY    32  26  78 W17G25    29.80R WCI  21
WASHINGTON *   CLOUDY    32  32 100 W17G28    29.79R WCI  21
$$

ABBREVIATIONS USED IN REMARKS
   TC - TEMPERATURES IN CELSIUS
  WCI - WIND CHILL INDEX
   HX - HEAT INDEX
  VSB - VISIBILITY
$$




USA.gov is the U.S. government's official web portal to all federal, state and local government web resources and services.